Regional Weather Roundup
Issued by NWS Mt. Holly, NJ

Home | Current Version | Previous Version | Text Only | Print | Product List | Glossary On
Versions: 1 2 3 4 5 6 7 8 9 10 11 12 13 14 15 16 17 18 19 20 21 22 23 24 25 26 27 28 29 30 31 32 33 34 35 36 37 38 39 40 41 42 43 44 45 46 47 48 49 50
000
ASUS41 KPHI 071112
RWRPHI

REGIONAL WEATHER ROUNDUP
NATIONAL WEATHER SERVICE MOUNT HOLLY NJ
700 AM EDT TUE JUL 07 2015

NOTE:  "FAIR" INDICATES FEW OR NO CLOUDS BELOW 12,000 FEET WITH NO
SIGNIFICANT WEATHER AND/OR OBSTRUCTIONS TO VISIBILITY.

 * = STATION DOES NOT REPORT PRECIPITATION (E.G. RAIN, SNOW, ETC.)
        OR FOG.

NJZ015>026-071200-
SOUTHERN NEW JERSEY

CITY           SKY/WX    TMP DP  RH WIND       PRES   REMARKS
POMONA         NOT AVBL
RIO GRANDE*    SUNNY     75  72  88 S6        30.06S
MILLVILLE      CLOUDY    76  74  93 CALM      30.05R
WRIGHTSTOWN    CLOUDY    75  75  99 S5        30.02S
MOUNT HOLLY    CLOUDY    74  73  97 CALM      30.04R
TRENTON        CLOUDY    75  73  93 S5        30.03S

$$
NJZ001>014-071200-
NORTHERN NEW JERSEY

CITY           SKY/WX    TMP DP  RH WIND       PRES   REMARKS
SUSSEX         CLOUDY    73  69  87 CALM      30.04S
ANDOVER*         N/A     74  70  87 CALM      30.05S
MORRISTOWN     CLOUDY    75  70  83 CALM      30.04S HAZE
NEWARK         PTSUNNY   77  72  84 S5        30.04S
TETERBORO      PTSUNNY   77  71  82 S6        30.03S
CALDWELL       PTSUNNY   76  70  82 CALM      30.04F
SOMERVILLE     SUNNY     74  72  93 S3        30.02S FOG
ALLAIRE*       PTSUNNY   75  70  83 S5        30.05S
TOMS RIVER*    SUNNY     75  73  94 CALM      30.06R

$$
PAZ043-044-047-054-055-060>062-066>071-071200-
EASTERN PENNSYLVANIA

CITY           SKY/WX    TMP DP  RH WIND       PRES   REMARKS
PHILADELPHIA   MOSUNNY   77  71  82 S7        30.04S
NORTH PHILA    PTSUNNY   77  71  82 S5        30.05S
BLUE BELL      CLOUDY    77  72  83 SW5       30.04S
DOYLESTOWN     CLOUDY    72  71  97 S5        30.04S
QUAKERTOWN*    PTSUNNY   73  72  94 SW5       30.05S
POTTSTOWN      CLOUDY    73  71  93 CALM      30.05S
LANCASTER      CLOUDY    73  72  96 SE5       30.03S FOG
COATESVILLE    CLOUDY    72  72 100 CALM      30.06S FOG
READING        CLOUDY    74  71  91 S3        30.02S
ALLENTOWN      CLOUDY    75  71  87 S6        30.03S
MOUNT POCONO   CLOUDY    70  32  24 S6        30.08S HAZE
HAZLETON       CLOUDY    70  70 100 CALM      30.10S
WILKES BARRE   CLOUDY    72  71  97 CALM      30.03F FOG

$$
DEZALL-MDZ008-012-015-019-020-071200-
DELAWARE AND EASTERN MARYLAND

CITY           SKY/WX    TMP DP  RH WIND       PRES   REMARKS
WILMINGTON     CLOUDY    74  71  91 SW6       30.05R
DOVER          SUNNY     75  75 100 S3        30.03R
GEORGETOWN     SUNNY     75  74  96 SW5       30.06R
EASTON         SUNNY     75  75 100 S6        30.08R
ABERDEEN       PTSUNNY   75  72  88 CALM      30.04S
PATUXENT       MOSUNNY   74  71  91 SW8       30.04R
OCEAN CITY     SUNNY     77  74  90 SW8       30.06R
WALLOPS ISLAND SUNNY     76  75  97 SW8       30.07R
CAMBRIDGE      SUNNY     73  72  94 CALM      30.03F
SALISBURY      SUNNY     74  73  97 S6        30.05S

$$
PAZ001-021-NYZ056-072-MDZ011-DCZ001-071200-
OTHER NEARBY LOCATIONS

CITY           SKY/WX    TMP DP  RH WIND       PRES   REMARKS
HARRISBURG     CLOUDY    74  70  87 SW3       30.02R
STATE COLLEGE  CLOUDY    68  68 100 SW3       30.06R FOG
WILLIAMSPORT   LGT RAIN  72  70  93 CALM      30.00R FOG
BINGHAMTON     CLOUDY    68  67  96 S5        30.04R
NEW YORK CITY  CLOUDY    77  71  82 S5        30.07S
BALTIMORE      PTSUNNY   72  71  97 SW3       30.03R FOG
WASHINGTON DC  MOSUNNY   76  71  85 S5        30.04S

$$



USA.gov is the U.S. government's official web portal to all federal, state and local government web resources and services.